Location: Unspecified
(40.7945°N, 0.0000°E)
Time: 07:53:11
(UTC+00:00)

TIGRISAT - Pass Details

Date: 29 August 2019
Orbit: 604 x 690 km, 97.7° (Epoch: 16 October)

Event Time Altitude Azimuth Distance (km) Brightness Sun altitude
Rises 20:40:08 0° 15° (NNE) 3,005 ? -21.9°
Reaches altitude 10° 20:42:25 10° 19° (NNE) 2,074 ? -22.3°
Enters shadow 20:46:22 56° 66° (ENE) 768 ? -22.9°
